Weather History for Provincetown, MA

Change the Weather History Date:

Thursday, June 13, 2013

  Actual Average Record
Temperature  
Mean Temperature 58 °F -  
Max Temperature 64 °F 67 °F 85 °F (1956)
Min Temperature 53 °F 54 °F 49 °F (1948)
Degree Days  
Heating Degree Days 6    
Growing Degree Days 8 (Base 50)    
Moisture  
Dew Point 53 °F    
Average Humidity 84    
Maximum Humidity 94    
Minimum Humidity 64    
Precipitation  
Precipitation 0.13 in - - ()
Sea Level Pressure  
Sea Level Pressure 29.78 in    
Wind  
Wind Speed 8 mph (ENE)    
Max Wind Speed 20 mph    
Max Gust Speed 25 mph    
Visibility 10 miles    
Events      
Averages and records for this station are not official NWS values.
T = Trace of Precipitation, MM = Missing Value Source: NWS Daily Summary

Daily Weather History Graph

Daily Weather History Graph

Search for Another Location

Airport:

Trip Planner

Search our weather history database for the weather conditions in past years. The results will help you decide how hot, cold, wet, or windy it might be!

Date:

Astronomy

Jun. 13, 2013 Rise Set
Actual Time 5:04 AM EDT 8:17 PM EDT
Civil Twilight 4:30 AM EDT 8:52 PM EDT
Nautical Twilight 3:45 AM EDT 9:36 PM EDT
Astronomical Twilight 2:52 AM EDT 10:30 PM EDT
Moon 9:41 AM EDT (6/13) 11:18 PM EDT (6/13)
Length of Visible Light 16h 22m
Length of Day
15h 13m
Waxing Crescent, 21% of the Moon is Illuminated
Jun 13
Waxing Crescent
Jun 16
First Quarter
Jun 23
Full
Jun 30
Last Quarter
Jul 8
New

Hourly Weather History & Observations

Time (EDT) Temp. Dew Point Humidity Pressure Visibility Wind Dir Wind Speed Gust Speed Precip Events Conditions
12:15 AM 59.0 °F 53.6 °F 82% 29.78 in 10.0 mi NW 5.8 mph - N/A   Overcast
12:35 AM 57.2 °F 53.6 °F 88% 29.79 in 10.0 mi NW 9.2 mph - N/A   Scattered Clouds
12:55 AM 59.0 °F 51.8 °F 77% 29.79 in 10.0 mi NNW 10.4 mph - N/A   Clear
1:15 AM 57.2 °F 51.8 °F 82% 29.79 in 10.0 mi NW 6.9 mph - N/A   Clear
1:35 AM 57.2 °F 53.6 °F 88% 29.78 in 10.0 mi WNW 5.8 mph - N/A   Clear
1:55 AM 57.2 °F 53.6 °F 88% 29.79 in 10.0 mi NW 9.2 mph - N/A   Partly Cloudy
2:15 AM 57.2 °F 53.6 °F 88% 29.78 in 10.0 mi WNW 10.4 mph - N/A   Partly Cloudy
2:35 AM 57.2 °F 53.6 °F 88% 29.78 in 10.0 mi WNW 11.5 mph - N/A   Clear
2:55 AM 57.2 °F 53.6 °F 88% 29.77 in 10.0 mi WNW 11.5 mph - N/A   Clear
3:15 AM 57.2 °F 53.6 °F 88% 29.78 in 10.0 mi WNW 10.4 mph - N/A   Clear
3:35 AM 57.2 °F 53.6 °F 88% 29.78 in 10.0 mi NW 9.2 mph - N/A   Clear
3:55 AM 57.2 °F 53.6 °F 88% 29.79 in 10.0 mi NW 8.1 mph - N/A   Clear
4:15 AM 57.2 °F 53.6 °F 88% 29.78 in 10.0 mi NW 8.1 mph - N/A   Clear
4:35 AM 57.2 °F 53.6 °F 88% 29.79 in 10.0 mi NW 5.8 mph - N/A   Clear
4:55 AM 57.2 °F 53.6 °F 88% 29.80 in 10.0 mi NW 5.8 mph - N/A   Clear
5:15 AM 55.4 °F 53.6 °F 94% 29.81 in 10.0 mi NW 3.5 mph - N/A   Clear
5:35 AM 55.4 °F 53.6 °F 94% 29.81 in 10.0 mi WNW 3.5 mph - N/A   Clear
5:55 AM 57.2 °F 53.6 °F 88% 29.82 in 10.0 mi NNW 3.5 mph - N/A   Clear
6:15 AM 57.2 °F 53.6 °F 88% 29.82 in 10.0 mi WNW 6.9 mph - N/A   Clear
6:35 AM 57.2 °F 53.6 °F 88% 29.82 in 10.0 mi WNW 3.5 mph - N/A   Clear
6:55 AM 59.0 °F 55.4 °F 88% 29.82 in 10.0 mi WNW 4.6 mph - N/A   Clear
7:15 AM 60.8 °F 53.6 °F 77% 29.82 in 10.0 mi WNW 3.5 mph - N/A   Clear
7:35 AM 60.8 °F 53.6 °F 77% 29.83 in 10.0 mi WNW 4.6 mph - N/A   Clear
7:55 AM 60.8 °F 53.6 °F 77% 29.82 in 10.0 mi Calm Calm - N/A   Clear
8:15 AM 62.6 °F 53.6 °F 72% 29.82 in 10.0 mi WNW 3.5 mph - N/A   Clear
8:35 AM 62.6 °F 53.6 °F 72% 29.82 in 10.0 mi Calm Calm - N/A   Clear
8:55 AM 62.6 °F 53.6 °F 72% 29.82 in 10.0 mi North 4.6 mph - N/A   Clear
9:15 AM 62.6 °F 53.6 °F 72% 29.82 in 10.0 mi NE 3.5 mph - N/A   Clear
9:35 AM 62.6 °F 53.6 °F 72% 29.82 in 10.0 mi ENE 5.8 mph - N/A   Clear
9:55 AM 62.6 °F 51.8 °F 68% 29.81 in 10.0 mi East 6.9 mph - N/A   Clear
10:15 AM 64.4 °F 51.8 °F 64% 29.82 in 10.0 mi East 5.8 mph - N/A   Clear
10:35 AM 64.4 °F 51.8 °F 64% 29.81 in 10.0 mi East 9.2 mph - N/A   Clear
10:55 AM 64.4 °F 51.8 °F 64% 29.81 in 10.0 mi SSE 8.1 mph - N/A   Partly Cloudy
11:15 AM 64.4 °F 51.8 °F 64% 29.81 in 10.0 mi ESE 8.1 mph - N/A   Clear
11:35 AM 62.6 °F 51.8 °F 68% 29.81 in 10.0 mi SE 5.8 mph - N/A   Scattered Clouds
11:55 AM 62.6 °F 51.8 °F 68% 29.82 in 10.0 mi SSE 6.9 mph - N/A   Overcast
12:15 PM 62.6 °F 51.8 °F 68% 29.81 in 10.0 mi South 6.9 mph - N/A   Overcast
12:35 PM 64.4 °F 51.8 °F 64% 29.80 in 10.0 mi SSE 9.2 mph - N/A   Mostly Cloudy
12:55 PM 62.6 °F 53.6 °F 72% 29.80 in 10.0 mi SSE 5.8 mph - N/A   Overcast
1:15 PM 62.6 °F 53.6 °F 72% 29.79 in 10.0 mi South 8.1 mph - N/A   Overcast
1:35 PM 60.8 °F 53.6 °F 77% 29.79 in 10.0 mi SSE 6.9 mph - N/A   Mostly Cloudy
1:55 PM 60.8 °F 53.6 °F 77% 29.79 in 10.0 mi SSE 8.1 mph - N/A   Overcast
2:15 PM 60.8 °F 55.4 °F 82% 29.79 in 10.0 mi South 6.9 mph - 0.01 in   Overcast
2:35 PM 59.0 °F 53.6 °F 82% 29.78 in 10.0 mi South 9.2 mph - 0.01 in   Overcast
2:55 PM 59.0 °F 53.6 °F 82% 29.74 in 10.0 mi SE 9.2 mph - 0.03 in   Overcast
3:15 PM 57.2 °F 55.4 °F 94% 29.76 in 10.0 mi SSE 8.1 mph - 0.01 in   Overcast
3:35 PM 57.2 °F 55.4 °F 94% 29.78 in 9.0 mi South 5.8 mph - 0.04 in   Overcast
3:55 PM 57.2 °F 55.4 °F 94% 29.80 in 8.0 mi South 6.9 mph - N/A   Overcast
4:15 PM 57.2 °F 53.6 °F 88% 29.79 in 8.0 mi SSE 5.8 mph - N/A   Overcast
4:35 PM 57.2 °F 53.6 °F 88% 29.78 in 7.0 mi SE 4.6 mph - N/A   Overcast
4:55 PM 57.2 °F 53.6 °F 88% 29.77 in 10.0 mi East 5.8 mph - N/A   Overcast
5:15 PM 57.2 °F 53.6 °F 88% 29.76 in 10.0 mi East 5.8 mph - N/A   Overcast
5:35 PM 57.2 °F 53.6 °F 88% 29.75 in 10.0 mi ENE 6.9 mph - N/A   Overcast
5:55 PM 57.2 °F 53.6 °F 88% 29.72 in 10.0 mi East 9.2 mph - N/A   Overcast
6:15 PM 55.4 °F 51.8 °F 88% 29.73 in 10.0 mi East 6.9 mph - N/A   Overcast
6:35 PM 55.4 °F 51.8 °F 88% 29.73 in 10.0 mi East 6.9 mph - N/A   Overcast
6:55 PM 55.4 °F 51.8 °F 88% 29.72 in 10.0 mi ESE 8.1 mph - N/A   Overcast
7:15 PM 55.4 °F 50.0 °F 82% 29.72 in 10.0 mi ESE 6.9 mph - N/A   Overcast
7:35 PM 55.4 °F 51.8 °F 88% 29.73 in 10.0 mi East 5.8 mph - N/A   Overcast
7:55 PM 55.4 °F 51.8 °F 88% 29.72 in 10.0 mi ESE 8.1 mph - N/A   Overcast
8:15 PM 55.4 °F 51.8 °F 88% 29.72 in 10.0 mi East 8.1 mph - N/A   Overcast
8:35 PM 55.4 °F 53.6 °F 94% 29.72 in 10.0 mi East 10.4 mph - N/A   Overcast
8:55 PM 55.4 °F 53.6 °F 94% 29.72 in 10.0 mi ENE 15.0 mph - N/A   Overcast
9:15 PM 55.4 °F 53.6 °F 94% 29.73 in 9.0 mi ENE 13.8 mph - N/A   Overcast
9:35 PM 55.4 °F 53.6 °F 94% 29.73 in 10.0 mi ENE 11.5 mph - N/A   Overcast
9:55 PM 55.4 °F 53.6 °F 94% 29.75 in 9.0 mi ENE 10.4 mph - 0.01 in   Overcast
10:15 PM 53.6 °F 51.8 °F 94% 29.72 in 7.0 mi ENE 13.8 mph - 0.02 in   Overcast
10:35 PM 53.6 °F 51.8 °F 94% 29.72 in 8.0 mi ENE 12.7 mph - 0.04 in   Overcast
10:55 PM 53.6 °F 51.8 °F 94% 29.70 in 10.0 mi ENE 17.3 mph 21.9 mph 0.04 in   Overcast
11:15 PM 53.6 °F 51.8 °F 94% 29.69 in 10.0 mi ENE 15.0 mph 19.6 mph 0.01 in   Overcast
11:35 PM 53.6 °F 51.8 °F 94% 29.68 in 10.0 mi NE 19.6 mph 25.3 mph 0.01 in   Overcast
11:55 PM 53.6 °F 51.8 °F 94% 29.66 in 10.0 mi NE 18.4 mph 25.3 mph N/A   Overcast